This is the latest recevied weather packets stored in our database for station/object K9UO. If no packets are shown the sender has not sent any weather packets the latest 10 day(s).
| Time | Temp. | Humidity | Pressure | Rain* | Wind** | Luminosity | Snow |
|---|---|---|---|---|---|---|---|
| 1777442465 | 11.11° C | 1% | 1012 hPa | 0 mm | - | - | - |
| 1777441552 | 10.56° C | 1% | 1012.3 hPa | 0 mm | - | - | - |
| 1777440654 | 10.56° C | 1% | 1012.8 hPa | 0 mm | - | - | - |
| 1777439744 | 11.11° C | 1% | 1012.8 hPa | 0 mm | - | - | - |
| 1777438839 | 10.56° C | 1% | 1012.6 hPa | 0 mm | - | - | - |
| 1777437935 | 10.56° C | 1% | 1012.6 hPa | 0 mm | - | - | - |
| 1777437035 | 10.56° C | 1% | 1012.7 hPa | 0 mm | - | - | - |
| 1777436126 | 10° C | 1% | 1012.7 hPa | 0 mm | - | - | - |
| 1777435223 | 10° C | 1% | 1012.5 hPa | 0 mm | - | - | - |
| 1777434319 | 10° C | 1% | 1012.5 hPa | 0 mm | - | - | - |
| 1777433420 | 10° C | 1% | 1012.2 hPa | 0 mm | - | - | - |
| 1777432508 | 10° C | 1% | 1012.5 hPa | 0 mm | - | - | - |
| 1777431603 | 10.56° C | 1% | 1012.7 hPa | 0 mm | - | - | - |
| 1777430760 | 10.56° C | 1% | 1012.7 hPa | 0 mm | - | - | - |
| 1777429865 | 10.56° C | 1% | 1012.8 hPa | 0 mm | - | - | - |
| 1777428974 | 11.11° C | 1% | 1013.4 hPa | 0 mm | - | - | - |
| 1777428046 | 11.11° C | 1% | 1013.4 hPa | 0 mm | - | - | - |
| 1777427143 | 11.11° C | 1% | 1013.3 hPa | 0 mm | - | - | - |
| 1777426237 | 11.67° C | 1% | 1013.3 hPa | 0 mm | - | - | - |
| 1777425335 | 12.22° C | 1% | 1013.5 hPa | 0 mm | - | - | - |
| 1777424430 | 12.78° C | 1% | 1014.2 hPa | 0 mm | - | - | - |
| 1777423534 | 13.33° C | 1% | 1013.9 hPa | 0 mm | - | - | - |
| 1777422620 | 13.89° C | 4% | 1013.9 hPa | 0 mm | - | - | - |
| 1777421715 | 13.89° C | 11% | 1013.7 hPa | 0 mm | - | - | - |
| 1777420821 | 14.44° C | 17% | 1012.9 hPa | 0 mm | - | - | - |
* Rain latest hour (hover to see other rain measurements)
** Current wind speed in m/s (hover to see current wind gust speed)